Princeton, MN

6:18 PM CST on December 17, 2017 (GMT -0600)
Princeton Municipal

Weather History for KPNM - April, 2014

Change the Weather History Date:

Monday, April 14, 2014

  Actual Average Record
Temperature  
Mean Temperature 30 °F -  
Max Temperature 37 °F 53 °F 87 °F (2003)
Min Temperature 24 °F 32 °F 5 °F (1999)
Degree Days  
Heating Degree Days 34    
Moisture  
Dew Point 11 °F    
Average Humidity 48    
Maximum Humidity 64    
Minimum Humidity 26    
Precipitation  
Precipitation 0.00 in - - ()
Sea Level Pressure  
Sea Level Pressure 30.05 in    
Wind  
Wind Speed 16 mph (NW)    
Max Wind Speed 23 mph    
Max Gust Speed 31 mph    
Visibility 10 miles    
Events      
Averages and records for this station are not official NWS values.
T = Trace of Precipitation, MM = Missing Value Source: NWS Daily Summary

Daily Weather History Graph

Daily Weather History Graph

Search for Another Location

Airport or City:

Trip Planner

Search our weather history database for the weather conditions in past years. The results will help you decide how hot, cold, wet, or windy it might be!

Date:

Astronomy

Apr. 14, 2014 Rise Set
Actual Time 6:30 AM CDT 7:59 PM CDT
Civil Twilight 5:59 AM CDT 8:30 PM CDT
Nautical Twilight 5:22 AM CDT 9:08 PM CDT
Astronomical Twilight 4:42 AM CDT 9:48 PM CDT
Moon 7:38 PM CDT (4/14) 6:05 AM CDT (4/14)
Length of Visible Light 14h 30m
Length of Day
13h 28m
Full, 100% of the Moon is Illuminated
Apr 14
Full
Apr 15
Full
Apr 22
Last Quarter
Apr 29
New
May 6
First Quarter

Hourly Weather History & Observations

Time (CDT) Temp. Windchill Dew Point Humidity Pressure Visibility Wind Dir Wind Speed Gust Speed Precip Events Conditions
12:14 AM 30.2 °F 18.9 °F 19.4 °F 64% 29.99 in 10.0 mi NNW 16.1 mph 25.3 mph N/A   Overcast
12:33 AM 30.2 °F 18.5 °F 19.4 °F 64% 29.99 in 10.0 mi NNW 17.3 mph 24.2 mph N/A   Overcast
12:53 AM 30.2 °F 18.9 °F 19.4 °F 64% 29.99 in 10.0 mi NNW 16.1 mph 27.6 mph N/A   Overcast
1:14 AM 30.2 °F 17.1 °F 19.4 °F 64% 29.99 in 10.0 mi North 21.9 mph 29.9 mph N/A   Overcast
1:33 AM 30.2 °F 17.4 °F 19.4 °F 64% 29.98 in 10.0 mi NW 20.7 mph 29.9 mph N/A   Overcast
1:53 AM 30.2 °F 16.8 °F 19.4 °F 64% 29.99 in 10.0 mi NNW 23.0 mph 29.9 mph N/A   Overcast
2:14 AM 30.2 °F 18.1 °F 17.6 °F 60% 29.98 in 10.0 mi NNW 18.4 mph 28.8 mph N/A   Overcast
2:33 AM 30.2 °F 18.1 °F 19.4 °F 64% 29.97 in 10.0 mi NNW 18.4 mph 27.6 mph N/A   Overcast
2:53 AM 30.2 °F 18.5 °F 17.6 °F 60% 29.98 in 10.0 mi NNW 17.3 mph 31.1 mph N/A   Overcast
3:14 AM 28.4 °F 16.2 °F 17.6 °F 64% 29.97 in 10.0 mi NNW 17.3 mph 27.6 mph N/A   Overcast
3:33 AM 28.4 °F 17.0 °F 17.6 °F 64% 29.97 in 10.0 mi North 15.0 mph 20.7 mph N/A   Overcast
4:14 AM 28.4 °F 16.6 °F 15.8 °F 59% 29.98 in 10.0 mi NNW 16.1 mph 28.8 mph N/A   Scattered Clouds
4:33 AM 28.4 °F 15.8 °F 15.8 °F 59% 29.98 in 10.0 mi NNW 18.4 mph 25.3 mph N/A   Scattered Clouds
4:53 AM 28.4 °F 16.6 °F 15.8 °F 59% 29.98 in 10.0 mi NNW 16.1 mph 24.2 mph N/A   Mostly Cloudy
5:14 AM 28.4 °F 15.8 °F 15.8 °F 59% 29.98 in 10.0 mi NNW 18.4 mph 25.3 mph N/A   Overcast
5:33 AM 26.6 °F 13.8 °F 15.8 °F 64% 29.98 in 10.0 mi NNW 17.3 mph 25.3 mph N/A   Mostly Cloudy
5:53 AM 26.6 °F 14.3 °F 15.8 °F 64% 29.98 in 10.0 mi NNW 16.1 mph 27.6 mph N/A   Scattered Clouds
6:13 AM 26.6 °F 15.2 °F 15.8 °F 64% 29.99 in 10.0 mi NNW 13.8 mph 24.2 mph N/A   Scattered Clouds
6:33 AM 26.6 °F 14.7 °F 15.8 °F 64% 30.02 in 10.0 mi NNW 15.0 mph 25.3 mph N/A   Clear
6:53 AM 26.6 °F 16.8 °F 15.8 °F 64% 30.02 in 10.0 mi NNW 10.4 mph - N/A   Clear
7:33 AM 26.6 °F 13.8 °F 15.8 °F 64% 30.04 in 10.0 mi NW 17.3 mph 25.3 mph N/A   Clear
7:53 AM 26.6 °F 14.3 °F 14.0 °F 59% 30.05 in 10.0 mi NW 16.1 mph 23.0 mph N/A   Clear
8:13 AM 26.6 °F 13.1 °F 12.2 °F 55% 30.06 in 10.0 mi NW 19.6 mph 25.3 mph N/A   Clear
8:33 AM 26.6 °F 13.4 °F 10.4 °F 51% 30.07 in 10.0 mi NNW 18.4 mph 26.5 mph N/A   Clear
8:53 AM 26.6 °F 14.7 °F 10.4 °F 51% 30.07 in 10.0 mi NNW 15.0 mph 27.6 mph N/A   Clear
9:13 AM 28.4 °F 17.0 °F 10.4 °F 47% 30.08 in 10.0 mi NNW 15.0 mph 21.9 mph N/A   Clear
9:34 AM 28.4 °F 15.8 °F 8.6 °F 43% 30.08 in 10.0 mi North 18.4 mph 27.6 mph N/A   Clear
9:53 AM 28.4 °F 14.7 °F 8.6 °F 43% 30.08 in 10.0 mi North 21.9 mph 26.5 mph N/A   Clear
10:13 AM 30.2 °F 17.4 °F 8.6 °F 40% 30.08 in 10.0 mi NW 20.7 mph 27.6 mph N/A   Clear
10:34 AM 30.2 °F 19.3 °F 10.4 °F 44% 30.08 in 10.0 mi North 15.0 mph 27.6 mph N/A   Clear
10:53 AM 30.2 °F 18.5 °F 10.4 °F 44% 30.08 in 10.0 mi NNW 17.3 mph 24.2 mph N/A   Clear
11:13 AM 30.2 °F 18.9 °F 10.4 °F 44% 30.08 in 10.0 mi WNW 16.1 mph 24.2 mph N/A   Clear
11:34 AM 32.0 °F 21.6 °F 10.4 °F 41% 30.08 in 10.0 mi NW 15.0 mph 24.2 mph N/A   Scattered Clouds
11:53 AM 33.8 °F 22.8 °F 8.6 °F 35% 30.08 in 10.0 mi NW 18.4 mph 24.2 mph N/A   Clear
12:13 PM 33.8 °F 24.3 °F 8.6 °F 35% 30.08 in 10.0 mi NNW 13.8 mph 21.9 mph N/A   Scattered Clouds
12:33 PM 33.8 °F 23.5 °F 8.6 °F 35% 30.08 in 10.0 mi NW 16.1 mph 23.0 mph N/A   Scattered Clouds
1:13 PM 33.8 °F 23.5 °F 8.6 °F 35% 30.07 in 10.0 mi NNW 16.1 mph 21.9 mph N/A   Mostly Cloudy
1:33 PM 35.6 °F 25.2 °F 6.8 °F 30% 30.07 in 10.0 mi WNW 18.4 mph 24.2 mph N/A   Scattered Clouds
1:53 PM 35.6 °F 24.5 °F 6.8 °F 30% 30.07 in 10.0 mi WNW 20.7 mph 24.2 mph N/A   Scattered Clouds
2:13 PM 35.6 °F 26.2 °F 5.0 °F 28% 30.07 in 10.0 mi WNW 15.0 mph 26.5 mph N/A   Scattered Clouds
2:33 PM 37.4 °F 28.5 °F 6.8 °F 28% 30.08 in 10.0 mi NW 15.0 mph 24.2 mph N/A   Scattered Clouds
2:53 PM 35.6 °F 26.6 °F 3.2 °F 26% 30.07 in 10.0 mi WNW 13.8 mph 21.9 mph N/A   Mostly Cloudy
3:13 PM 33.8 °F 24.3 °F 5.0 °F 30% 30.08 in 10.0 mi NW 13.8 mph 23.0 mph N/A   Scattered Clouds
3:33 PM 35.6 °F 27.1 °F 6.8 °F 30% 30.06 in 10.0 mi NW 12.7 mph 19.6 mph N/A   Mostly Cloudy
4:13 PM 35.6 °F 25.2 °F 5.0 °F 28% 30.06 in 10.0 mi NNW 18.4 mph 24.2 mph N/A   Mostly Cloudy
4:33 PM 35.6 °F 25.5 °F 5.0 °F 28% 30.05 in 10.0 mi NNW 17.3 mph 23.0 mph N/A   Mostly Cloudy
4:54 PM 35.6 °F 25.9 °F 5.0 °F 28% 30.05 in 10.0 mi NNW 16.1 mph 21.9 mph N/A   Mostly Cloudy
5:13 PM 33.8 °F 23.9 °F 3.2 °F 28% 30.05 in 10.0 mi NW 15.0 mph 21.9 mph N/A   Scattered Clouds
5:33 PM 35.6 °F 26.2 °F 5.0 °F 28% 30.05 in 10.0 mi WNW 15.0 mph 23.0 mph N/A   Clear
5:54 PM 33.8 °F 23.9 °F 6.8 °F 32% 30.06 in 10.0 mi WNW 15.0 mph 24.2 mph N/A   Scattered Clouds
6:13 PM 33.8 °F 24.3 °F 6.8 °F 32% 30.06 in 10.0 mi WNW 13.8 mph 17.3 mph N/A   Scattered Clouds
6:33 PM 32.0 °F 21.2 °F 5.0 °F 32% 30.06 in 10.0 mi WNW 16.1 mph 20.7 mph N/A   Scattered Clouds
6:54 PM 30.2 °F 20.2 °F 6.8 °F 37% 30.07 in 10.0 mi WNW 12.7 mph 23.0 mph N/A   Scattered Clouds
7:13 PM 30.2 °F 18.9 °F 8.6 °F 40% 30.07 in 10.0 mi NW 16.1 mph 20.7 mph N/A   Scattered Clouds
7:33 PM 30.2 °F 22.6 °F 8.6 °F 40% 30.08 in 10.0 mi WNW 8.1 mph - N/A   Clear
7:53 PM 28.4 °F 18.0 °F 8.6 °F 43% 30.08 in 10.0 mi NW 12.7 mph - N/A   Clear
8:13 PM 28.4 °F 21.2 °F 8.6 °F 43% 30.09 in 10.0 mi WNW 6.9 mph - N/A   Scattered Clouds
8:33 PM 28.4 °F 18.5 °F 12.2 °F 51% 30.10 in 10.0 mi NNW 11.5 mph - N/A   Mostly Cloudy
8:53 PM 28.4 °F 19.7 °F 12.2 °F 51% 30.10 in 10.0 mi NW 9.2 mph - N/A   Mostly Cloudy
9:13 PM 28.4 °F 21.2 °F 12.2 °F 51% 30.11 in 10.0 mi NW 6.9 mph - N/A   Scattered Clouds
9:33 PM 26.6 °F 16.8 °F 12.2 °F 55% 30.10 in 10.0 mi NW 10.4 mph - N/A   Scattered Clouds
9:53 PM 26.6 °F 19.1 °F 12.2 °F 55% 30.11 in 10.0 mi NW 6.9 mph - N/A   Scattered Clouds
10:13 PM 26.6 °F 18.2 °F 12.2 °F 55% 30.11 in 10.0 mi NW 8.1 mph - N/A   Mostly Cloudy
10:33 PM 26.6 °F 18.2 °F 14.0 °F 59% 30.11 in 10.0 mi NW 8.1 mph - N/A   Mostly Cloudy
10:53 PM 26.6 °F 16.8 °F 12.2 °F 55% 30.11 in 10.0 mi NNW 10.4 mph 17.3 mph N/A   Overcast
11:13 PM 26.6 °F 15.2 °F 12.2 °F 55% 30.11 in 10.0 mi NNW 13.8 mph 18.4 mph N/A   Mostly Cloudy
11:33 PM 24.8 °F 15.3 °F 12.2 °F 59% 30.11 in 10.0 mi NW 9.2 mph - N/A   Scattered Clouds
11:53 PM 24.8 °F 14.6 °F 10.4 °F 54% 30.11 in 10.0 mi NW 10.4 mph - N/A   Scattered Clouds